FW7512 Weather Reports


Display with metric or nautical units.
time (UTC)temp
F
wind
direction
speed
MPH
gust
MPH
rain 1hr
in
rain 24hr
in
rain mn
in
humidity
%
barometer
mb
20260507103514 39 286 0.0 0.0 0.00 0.00 0.00 96 1015.5
20260507103034 39 285 0.0 0.0 0.00 0.00 0.00 96 1015.6
20260507102525 39 286 0.0 0.0 0.00 0.00 0.00 96 1015.6
20260507102016 39 286 0.0 0.0 0.00 0.00 0.00 96 1015.6
20260507101539 39 285 0.0 0.0 0.00 0.00 0.00 96 1015.5
20260507101032 39 286 0.0 0.0 0.00 0.00 0.00 96 1015.6
20260507100528 39 286 0.0 0.0 0.00 0.00 0.00 96 1015.6
20260507100046 39 286 0.0 0.0 0.00 0.00 0.00 96 1015.5
20260507095534 39 286 0.0 0.0 0.00 0.00 0.00 96 1015.5
20260507095028 39 286 0.0 0.0 0.00 0.00 0.00 96 1015.5
20260507094602 39 286 0.0 0.0 0.00 0.00 0.00 96 1015.6
20260507094051 39 286 0.0 0.0 0.00 0.00 0.00 96 1015.5
20260507093542 39 286 0.0 0.0 0.00 0.00 0.00 96 1015.5
20260507093116 39 286 0.0 0.0 0.00 0.00 0.00 96 1015.4
20260507092554 39 286 0.0 0.0 0.00 0.00 0.00 95 1015.4
20260507092041 40 285 0.0 0.0 0.00 0.00 0.00 96 1015.3
20260507091501 40 286 0.0 0.0 0.00 0.00 0.00 96 1015.3
20260507091058 40 286 0.0 0.0 0.00 0.00 0.00 96 1015.3
20260507090545 40 286 0.0 0.0 0.00 0.00 0.00 95 1015.3
20260507090018 40 285 0.0 0.0 0.00 0.01 0.00 95 1015.2
20260507085507 40 286 0.0 0.0 0.00 0.01 0.00 95 1015.2
20260507085102 40 286 0.0 0.0 0.00 0.01 0.00 96 1015.1
20260507084529 40 286 0.0 0.0 0.00 0.01 0.00 95 1015.1
20260507084021 40 286 0.0 0.0 0.00 0.01 0.00 95 1015.1
20260507083513 40 286 0.0 0.0 0.00 0.01 0.00 95 1015.1
20260507083032 40 286 0.0 0.0 0.00 0.01 0.00 95 1015.0
20260507082525 40 286 0.0 0.0 0.00 0.01 0.00 95 1014.9
20260507082023 40 286 0.0 0.0 0.00 0.01 0.00 95 1014.9
20260507081541 40 286 0.0 0.0 0.00 0.01 0.00 95 1014.9
20260507081035 40 286 0.0 0.0 0.00 0.01 0.00 95 1014.9
20260507080528 40 286 0.0 0.0 0.00 0.01 0.00 95 1015.0
20260507080116 40 286 0.0 0.0 0.00 0.01 0.00 95 1014.9
20260507075552 40 286 0.0 0.0 0.00 0.07 0.00 95 1014.9
20260507075043 41 286 0.0 0.0 0.00 0.07 0.00 95 1014.9
20260507074500 41 285 0.0 0.0 0.00 0.07 0.00 95 1014.9
20260507074053 40 286 0.0 0.0 0.00 0.07 0.00 95 1014.8
20260507073549 40 286 0.0 0.0 0.00 0.07 0.00 95 1014.9
20260507073005 40 286 0.0 0.0 0.00 0.07 0.00 95 1015.0
20260507072601 40 286 0.0 0.0 0.00 0.07 0.00 95 1014.9
20260507072053 41 286 0.0 0.0 0.00 0.07 0.00 95 1014.9
20260507071534 41 286 0.0 0.0 0.00 0.07 0.00 95 1015.0
20260507071006 41 286 0.0 0.0 0.00 0.07 0.00 95 1014.9
20260507070559 41 286 0.0 0.0 0.00 0.07 0.00 95 1014.9
20260507070016 41 286 0.0 0.0 0.00 0.12 0.00 95 1014.9
20260507065508 41 286 0.0 0.0 0.00 0.12 0.00 95 1014.9
20260507065002 41 286 0.0 0.0 0.00 0.12 0.00 95 1014.9
20260507064523 40 286 0.0 0.0 0.00 0.12 0.00 95 1014.9
20260507064017 41 286 0.0 0.0 0.00 0.12 0.00 95 1015.1
20260507063506 41 286 0.0 0.0 0.00 0.12 0.00 95 1015.1
20260507063029 41 286 0.0 0.0 0.00 0.12 0.00 95 1015.1
20260507062524 41 285 0.0 0.0 0.00 0.12 0.00 95 1015.1
20260507062012 41 286 0.0 0.0 0.00 0.12 0.00 95 1015.1
20260507061533 41 286 0.0 0.0 0.00 0.12 0.00 95 1014.9
20260507061025 41 285 0.0 0.0 0.00 0.12 0.00 95 1014.9
20260507060519 41 286 0.0 0.0 0.00 0.12 0.00 95 1015.0
20260507060041 41 286 0.0 0.0 0.00 0.32 0.00 95 1014.9
20260507055532 41 286 0.0 0.0 0.00 0.32 0.00 94 1015.0
20260507055023 42 286 0.0 0.0 0.00 0.32 0.00 94 1015.0
20260507054554 42 285 0.0 0.0 0.00 0.32 0.00 94 1015.0
20260507054045 42 286 0.0 0.0 0.00 0.32 0.00 94 1015.0
20260507053538 42 285 0.0 0.0 0.00 0.32 0.00 94 1015.1
20260507053122 42 286 0.0 0.0 0.00 0.32 0.00 94 1015.2
20260507052545 42 286 0.0 0.0 0.00 0.32 0.00 94 1015.1
20260507052037 42 285 0.0 0.0 0.00 0.32 0.00 94 1015.1
20260507051604 42 285 0.0 0.0 0.00 0.32 0.00 94 1015.0
20260507051049 42 286 0.0 0.0 0.00 0.32 0.00 94 1015.1
20260507050538 43 286 0.0 0.0 0.00 0.32 0.00 94 1015.2
20260507050006 43 285 0.0 0.0 0.00 0.43 0.00 94 1015.1
20260507045559 43 286 0.0 0.0 0.00 0.43 0.00 94 1015.2
20260507045050 43 286 0.0 0.0 0.00 0.43 0.00 94 1015.2
20260507044507 43 286 0.0 0.0 0.00 0.43 0.00 94 1015.3
20260507044059 43 286 0.0 0.0 0.00 0.43 0.00 94 1015.3
20260507043552 43 286 0.0 0.0 0.00 0.43 0.00 94 1015.2
20260507043011 43 286 0.0 0.0 0.00 0.43 0.00 94 1015.2
20260507042501 43 286 0.0 0.0 0.00 0.43 0.00 94 1015.2
20260507042056 44 286 0.0 0.0 0.00 0.43 0.00 94 1015.2
20260507041512 44 286 0.0 0.0 0.00 0.43 0.00 93 1015.2
20260507041002 44 286 0.0 0.0 0.00 0.43 0.00 93 1015.2
20260507040554 44 286 0.0 0.0 0.00 0.43 0.00 93 1015.1
20260507040022 44 286 0.0 0.0 0.00 0.45 0.43 93 1015.0
20260507035512 44 286 0.0 0.0 0.00 0.45 0.43 93 1015.1
20260507035003 44 286 0.0 0.0 0.00 0.45 0.43 92 1015.1
20260507034532 44 286 0.0 0.0 0.00 0.45 0.43 92 1015.1
20260507034013 45 286 0.0 0.0 0.00 0.45 0.43 92 1015.2
20260507033505 45 286 0.0 0.0 0.00 0.45 0.43 92 1015.1
20260507033036 45 286 0.0 0.0 0.00 0.45 0.43 92 1015.1
20260507032515 45 286 0.0 0.0 0.00 0.45 0.43 91 1015.2
20260507032010 45 286 0.0 0.0 0.00 0.45 0.43 91 1015.1
20260507031529 45 286 0.0 0.0 0.00 0.45 0.43 91 1015.1
20260507031022 46 286 0.0 0.0 0.00 0.45 0.43 91 1015.2
20260507030515 46 286 0.0 0.0 0.00 0.45 0.43 91 1015.2
20260507030033 46 286 0.0 0.0 0.00 0.48 0.43 90 1015.2
20260507025529 46 286 0.0 0.0 0.00 0.48 0.43 90 1015.2
20260507025020 46 285 0.0 0.0 0.00 0.48 0.43 89 1015.4
20260507024541 46 285 0.0 0.0 0.00 0.48 0.43 89 1015.3
20260507024032 47 286 0.0 0.0 0.00 0.48 0.43 88 1015.2
20260507023523 47 286 0.0 0.0 0.00 0.48 0.43 88 1015.1
20260507023044 47 286 0.0 0.0 0.00 0.48 0.43 87 1015.1
20260507022535 47 285 0.0 0.0 0.00 0.48 0.43 87 1015.1
20260507022028 47 285 0.0 0.0 0.00 0.48 0.43 86 1015.1
20260507021558 48 286 0.0 0.0 0.00 0.48 0.43 85 1015.1
20260507021050 48 286 0.0 0.0 0.00 0.48 0.43 85 1015.0
20260507020540 48 286 0.0 0.0 0.00 0.48 0.43 84 1015.0
20260507015552 49 286 0.0 0.0 0.00 0.59 0.43 84 1014.9
20260507015043 49 285 0.0 0.0 0.00 0.59 0.43 83 1014.9
20260507014502 49 286 0.0 0.0 0.00 0.59 0.43 82 1014.9
20260507014055 49 286 0.0 0.0 0.00 0.59 0.43 81 1014.8
20260507013546 50 286 0.0 0.0 0.00 0.59 0.43 81 1014.6
20260507013001 50 286 0.0 0.0 0.00 0.59 0.43 83 1014.4
20260507012558 50 285 0.0 0.0 0.00 0.59 0.43 81 1014.5
20260507012045 50 286 0.0 0.0 0.00 0.59 0.43 80 1014.4
20260507011509 51 286 0.0 0.0 0.00 0.59 0.43 81 1014.1
20260507011002 51 286 0.0 0.0 0.00 0.59 0.43 81 1014.3
20260507010558 51 286 0.0 0.0 0.00 0.59 0.43 81 1014.3
20260507010023 52 286 0.0 0.0 0.00 0.61 0.43 82 1014.3
20260507005508 52 286 0.0 0.0 0.00 0.61 0.43 80 1014.1
20260507005102 52 286 0.0 0.0 0.00 0.61 0.43 79 1014.3
20260507004529 52 286 0.0 0.0 0.00 0.61 0.43 81 1014.3
20260507004016 52 286 0.0 0.0 0.00 0.61 0.43 79 1014.2
20260507003506 53 286 0.0 0.0 0.00 0.61 0.43 80 1014.1
20260507003026 53 286 0.0 0.0 0.00 0.61 0.43 78 1014.1
20260507002520 54 286 0.0 0.0 0.00 0.61 0.43 75 1014.0
20260507002011 54 286 0.0 0.0 0.00 0.61 0.43 74 1013.9
20260507001549 55 285 0.0 0.0 0.00 0.61 0.43 72 1014.0
20260507001035 55 287 0.0 0.0 0.00 0.61 0.43 65 1013.9
20260507000528 56 287 0.0 1.0 0.00 0.61 0.43 70 1013.9
20260507000051 56 288 0.0 2.0 0.00 0.61 0.43 67 1013.9
20260506235546 56 245 0.0 2.0 0.00 0.63 0.43 65 1013.7
20260506235035 56 274 0.0 1.0 0.00 0.63 0.43 66 1013.4
20260506234557 56 274 0.0 1.0 0.00 0.63 0.43 63 1013.4
20260506234053 57 139 0.0 1.0 0.00 0.63 0.43 67 1013.5
20260506233542 57 238 0.0 1.0 0.00 0.63 0.43 64 1013.4
20260506233004 58 69 0.0 3.0 0.00 0.63 0.43 62 1013.4
20260506232558 58 64 0.0 3.0 0.00 0.63 0.43 64 1013.5
20260506232045 59 158 0.0 5.0 0.00 0.63 0.43 62 1013.2
20260506231506 59 268 0.0 5.0 0.00 0.63 0.43 57 1013.1
20260506231105 60 299 1.0 3.0 0.00 0.63 0.43 59 1012.9
20260506230559 59 259 0.0 1.0 0.00 0.63 0.43 58 1013.1
20260506230025 59 149 0.0 1.0 0.00 0.63 0.43 59 1013.2
20260506225518 59 254 0.0 1.0 0.00 0.63 0.43 64 1013.3
20260506225010 59 215 0.0 0.0 0.00 0.63 0.43 64 1013.3
20260506224533 59 212 0.0 0.0 0.00 0.63 0.43 60 1013.3
20260506224021 59 214 0.0 2.0 0.00 0.63 0.43 55 1013.3
20260506223520 60 260 0.0 2.0 0.00 0.63 0.43 58 1013.4
20260506223038 60 116 0.0 2.0 0.00 0.63 0.43 58 1013.5
20260506222533 60 300 0.0 4.0 0.00 0.63 0.43 66 1013.5
20260506222023 59 170 0.0 4.0 0.00 0.63 0.43 55 1013.6
20260506221545 60 134 0.0 2.0 0.00 0.63 0.43 60 1013.3
20260506221038 60 248 0.0 2.0 0.00 0.63 0.43 57 1013.8
20260506220530 60 134 0.0 2.0 0.00 0.63 0.43 57 1013.7
20260506220052 60 84 0.0 4.0 0.00 0.63 0.43 59 1013.6
20260506215543 59 241 0.0 2.0 0.00 0.67 0.43 58 1013.6
20260506215033 60 314 0.0 4.0 0.00 0.67 0.43 63 1013.7
20260506214603 60 93 0.0 4.0 0.00 0.67 0.43 57 1013.6
20260506214046 60 123 0.0 2.0 0.00 0.67 0.43 56 1013.6
20260506213541 60 259 0.0 1.0 0.00 0.67 0.43 55 1013.5
20260506213113 60 255 0.0 1.0 0.00 0.67 0.43 55 1013.5
20260506212552 60 265 0.0 1.0 0.00 0.67 0.43 58 1013.4
20260506212043 61 172 0.0 1.0 0.00 0.67 0.43 60 1013.4
20260506211511 61 122 0.0 1.0 0.00 0.67 0.43 52 1013.1
20260506211004 61 293 0.0 1.0 0.00 0.67 0.43 53 1013.0
20260506210559 61 293 0.0 3.0 0.00 0.67 0.43 54 1012.9
20260506210027 61 237 0.0 3.0 0.00 0.79 0.43 52 1012.9
20260506205517 61 145 0.0 2.0 0.00 0.79 0.43 54 1012.9
20260506205011 61 63 0.0 4.0 0.00 0.79 0.43 53 1013.0
20260506204532 61 310 1.0 4.0 0.00 0.79 0.43 53 1012.9
20260506204023 61 46 0.0 2.0 0.00 0.79 0.43 63 1013.0
20260506203517 61 360 0.0 2.0 0.00 0.79 0.43 58 1013.1
20260506203039 61 91 0.0 3.0 0.00 0.79 0.43 54 1013.1
20260506202530 61 256 0.0 3.0 0.00 0.79 0.43 54 1013.2
20260506202024 61 236 0.0 2.0 0.00 0.79 0.43 55 1013.0
20260506201544 61 250 0.0 3.0 0.00 0.79 0.43 52 1013.0
20260506201037 61 57 0.0 3.0 0.00 0.79 0.43 54 1013.1
20260506200530 61 232 0.0 2.0 0.00 0.79 0.43 52 1013.0
20260506200001 61 272 0.0 1.0 0.00 0.95 0.43 55 1013.0
20260506195553 61 274 0.0 2.0 0.00 0.95 0.43 55 1013.1
20260506195048 62 74 0.0 2.0 0.00 0.95 0.43 57 1012.9
20260506194502 62 39 0.0 3.0 0.00 0.95 0.43 55 1013.0
20260506194056 62 142 0.0 3.0 0.00 0.95 0.43 54 1012.9
20260506193550 63 117 0.0 2.0 0.00 0.95 0.43 53 1012.8
20260506193008 63 78 0.0 3.0 0.00 0.95 0.43 56 1012.5
20260506192601 63 115 0.0 3.0 0.00 0.95 0.43 52 1012.6
20260506192054 63 221 1.0 3.0 0.00 0.95 0.43 51 1012.6
20260506191515 63 98 0.0 3.0 0.00 0.95 0.43 53 1012.6
20260506191009 63 337 0.0 3.0 0.00 0.95 0.43 55 1012.6
20260506190602 64 274 0.0 3.0 0.00 0.95 0.43 51 1012.5
20260506190024 64 94 0.0 5.0 0.00 0.95 0.43 53 1012.4
20260506185512 64 242 0.0 5.0 0.00 0.95 0.43 48 1012.5
20260506185008 64 143 0.0 4.0 0.00 0.95 0.43 48 1012.5
20260506184527 64 172 1.0 4.0 0.00 0.95 0.43 50 1012.7
20260506184024 65 335 0.0 5.0 0.00 0.95 0.43 56 1012.5
20260506183511 65 44 0.0 4.0 0.00 0.95 0.43 54 1012.6
20260506183034 65 96 0.0 5.0 0.00 0.95 0.43 52 1012.6
20260506182524 64 224 1.0 5.0 0.00 0.95 0.43 51 1012.5
20260506182017 65 103 0.0 3.0 0.00 0.95 0.43 55 1012.6
20260506181549 65 129 0.0 3.0 0.00 0.95 0.43 56 1012.6
20260506181034 65 63 0.0 2.0 0.00 0.95 0.43 47 1012.7
20260506180524 65 172 0.0 3.0 0.00 0.95 0.43 52 1012.8
20260506180105 65 347 0.0 3.0 0.00 0.95 0.43 54 1012.8
20260506175538 65 295 0.0 4.0 0.00 0.95 0.43 54 1013.0
20260506175026 64 300 0.0 4.0 0.00 0.95 0.43 54 1013.0
20260506174554 63 117 0.0 2.0 0.00 0.95 0.43 58 1012.9
20260506174044 63 65 0.0 2.0 0.00 0.95 0.43 55 1013.0
20260506173537 63 259 0.0 3.0 0.00 0.95 0.43 64 1013.0
20260506173126 62 273 0.0 3.0 0.00 0.95 0.43 51 1013.0
20260506172545 62 252 0.0 3.0 0.00 0.95 0.43 58 1013.3
20260506172036 61 278 1.0 3.0 0.00 0.95 0.43 54 1013.1
20260506171555 61 74 0.0 3.0 0.00 0.95 0.43 54 1013.2
20260506171049 61 117 0.0 3.0 0.00 0.95 0.43 58 1013.4
20260506170543 61 111 0.0 3.0 0.00 0.95 0.43 57 1013.3
20260506170011 61 204 0.0 3.0 0.00 0.95 0.43 60 1013.3
20260506165503 61 51 1.0 3.0 0.00 0.95 0.43 58 1013.3
20260506165055 61 4 0.0 3.0 0.00 0.95 0.43 57 1013.5
20260506164522 61 131 0.0 3.0 0.00 0.95 0.43 54 1013.3
20260506164011 61 118 0.0 3.0 0.00 0.95 0.43 55 1013.4
20260506163502 61 154 0.0 4.0 0.00 0.95 0.43 63 1013.4
20260506163020 60 131 0.0 4.0 0.00 0.95 0.43 61 1013.4
20260506162508 60 323 1.0 3.0 0.00 0.95 0.43 62 1013.4
20260506162100 60 120 0.0 2.0 0.00 0.95 0.43 63 1013.5
20260506161526 60 14 0.0 4.0 0.00 0.95 0.43 63 1013.5
20260506161017 59 109 0.0 2.0 0.00 0.95 0.43 61 1013.3
20260506160510 58 344 0.0 2.0 0.00 0.95 0.43 66 1013.3
20260506160027 58 106 0.0 4.0 0.00 0.95 0.43 64 1013.3
20260506155518 58 16 0.0 5.0 0.00 0.95 0.43 69 1013.3
20260506155012 58 136 0.0 5.0 0.00 0.95 0.43 68 1013.1
20260506154533 58 146 0.0 2.0 0.00 0.95 0.43 70 1013.1
20260506154025 57 146 0.0 6.0 0.00 0.95 0.43 66 1013.2
20260506153516 57 314 0.0 6.0 0.00 0.95 0.43 71 1013.4
20260506153038 57 301 0.0 3.0 0.00 0.95 0.43 69 1013.6
20260506152532 56 352 0.0 4.0 0.00 0.95 0.43 72 1013.6
20260506152021 56 288 0.0 4.0 0.00 0.95 0.43 70 1013.4
20260506151545 56 95 0.0 3.0 0.00 0.95 0.43 74 1013.3
20260506151031 56 108 0.0 3.0 0.00 0.95 0.43 76 1013.0
20260506150525 55 231 0.0 4.0 0.00 0.95 0.43 69 1013.2
20260506150044 55 73 0.0 4.0 0.00 0.95 0.43 73 1013.1
20260506145534 55 348 0.0 4.0 0.00 0.95 0.43 72 1012.9
20260506145024 55 353 0.0 3.0 0.00 0.95 0.43 74 1012.5
20260506144600 55 105 0.0 1.0 0.00 0.95 0.43 76 1012.5
20260506144034 54 18 0.0 2.0 0.00 0.95 0.43 79 1012.4
20260506143525 53 131 0.0 2.0 0.00 0.95 0.43 77 1012.2
20260506143043 53 131 0.0 6.0 0.00 0.95 0.43 78 1012.2
20260506142537 53 42 0.0 3.0 0.00 0.95 0.43 79 1012.4
20260506142028 53 60 0.0 2.0 0.00 0.95 0.43 84 1012.3
20260506141549 53 68 0.0 2.0 0.00 0.95 0.43 81 1012.3
20260506141041 52 105 0.0 2.0 0.00 0.95 0.43 82 1012.3
20260506140531 52 287 0.0 2.0 0.00 0.95 0.43 81 1012.2
20260506140051 52 72 0.0 2.0 0.00 0.95 0.43 83 1012.4
20260506135539 51 127 0.0 2.0 0.00 0.95 0.43 82 1012.2
20260506135032 51 122 0.0 2.0 0.00 0.95 0.43 84 1012.2
20260506134554 51 333 0.0 0.0 0.00 0.95 0.43 87 1012.2
20260506134041 51 323 0.0 3.0 0.00 0.95 0.43 88 1012.1
20260506133536 50 314 0.0 3.0 0.00 0.95 0.43 87 1012.1
20260506133059 50 160 0.0 3.0 0.00 0.95 0.43 87 1011.9
20260506132544 50 53 0.0 4.0 0.00 0.95 0.43 88 1011.9
20260506132036 50 263 0.0 4.0 0.00 0.95 0.43 89 1011.8
20260506131557 50 6 0.0 0.0 0.00 0.95 0.43 90 1011.7
20260506131048 49 5 0.0 1.0 0.00 0.95 0.43 91 1011.5
20260506130543 49 169 0.0 1.0 0.00 0.95 0.43 89 1011.7
20260506130114 49 249 0.0 2.0 0.00 0.95 0.43 92 1011.8
20260506125553 48 249 0.0 2.0 0.00 0.95 0.43 90 1011.8
20260506125046 48 146 0.0 1.0 0.00 0.95 0.43 93 1011.6
20260506124511 47 126 0.0 1.0 0.00 0.95 0.43 93 1011.6
20260506124005 47 160 0.0 1.0 0.00 0.95 0.43 94 1011.6
20260506123559 46 251 0.0 2.0 0.00 0.95 0.43 94 1011.5
20260506123028 46 257 0.0 2.0 0.00 0.95 0.43 95 1011.6
20260506122521 46 88 0.0 1.0 0.00 0.95 0.43 96 1011.3
20260506122018 46 122 0.0 1.0 0.00 0.95 0.43 96 1011.4
20260506121533 46 196 0.0 1.0 0.00 0.95 0.43 96 1011.5
20260506121025 46 246 0.0 1.0 0.00 0.95 0.43 96 1011.2
20260506120515 46 243 0.0 0.0 0.00 0.95 0.43 96 1010.9
20260506120034 46 243 0.0 0.0 0.00 0.95 0.43 96 1010.8
20260506115522 46 243 0.0 0.0 0.00 0.95 0.43 96 1010.6
20260506115011 45 359 0.0 0.0 0.00 0.95 0.43 96 1010.3
20260506114541 45 1 0.0 0.0 0.00 0.95 0.43 96 1010.2
20260506114034 0 0.0 0.0 0.00 0.95 0.43 1010.2
20260506113527 0 0.0 0.0 0.00 0.95 0.43 1010.1
20260506113048 0 0.0 0.0 0.00 0.95 0.43 1010.3
20260506112537 0 0.0 0.0 0.00 0.95 0.43 1010.1
20260506112026 0 0.0 0.0 0.00 0.95 0.43 1009.8
20260506111548 0 0.0 0.0 0.00 0.95 0.43 1009.8
20260506111040 0 0.0 0.0 0.00 0.95 0.43 1009.9
20260506110534 0 0.0 0.0 0.00 0.95 0.43 1010.2
20260506110053 0 0.0 0.0 0.00 0.95 0.43 1010.0
20260506105542 0 0.0 0.0 0.00 0.98 0.43 1009.4
20260506105036 0 0.0 0.0 0.00 0.98 0.43 1009.1
20260506104600 0 0.0 0.0 0.00 0.98 0.43 1009.0
20260506104049 0 0.0 0.0 0.00 0.98 0.43 1009.3